ECHOSTAR 11

Last updated on Sat Aug 15 2026 00:02:57 GMT+0000 (Coordinated Universal Time)

1 33207U 08035A 26226.54621597 -.00000073 00000+0 00000+0 0 9997 2 33207 1.1515 83.4590 0002250 65.0781 261.2519 1.00271821 51795
UTC large
Height (km)
Speed (km/s)
/
Latitude / Longitude
Inclination (degrees)
Orbital Period (minutes)
Azimuth
Elevation
Range (km)
Doppler Factor

Next 0 passes for location: London (51.5072 / 0.1276)

No passes found over London.
ECHOSTAR 11